Other Public Products
Issued by NWS Grand Forks, ND

Home | Current Version | Previous Version | Graphics & Text | Print | Product List | Glossary On
Versions: 1 2 3 4 5 6 7 8 9 10 11 12 13 14 15 16 17 18 19 20 21 22 23 24 25 26 27 28 29 30 31 32 33 34 35 36 37 38 39 40 41 42 43 44 45 46 47 48 49 50
000
FPUS83 KFGF 202010
OPUFGF
PRAIRIE TO PINES WEATHER ROUNDUP
NATIONAL WEATHER SERVICE EASTERN NORTH DAKOTA/GRAND FORKS ND
300 PM CDT SAT SEP 20 2014

 **SATELLITE DATA USED TO AUGMENT SKY COVER AT AUTOMATED STATIONS**
 *****  WEATHER ACROSS EASTERN NORTH DAKOTA  *****

CITY           SKY/WX    TMP DP  RH WIND       PRES   REMARKS
GRAND FORKS    CLOUDY    63  54  72 NW24G33   29.79R
GRAND FORKS AF CLOUDY    61  55  81 NW21G29   29.81R
GRAND CITY NWS   N/A     61 N/A N/A N12         N/A
BUXTON         NOT AVBL
DEVILS LAKE    PTSUNNY   64  48  55 NW24G31   29.83S
FARGO          CLOUDY    64  56  75 NW23G30   29.81R
WAHPETON ARPT  CLOUDY    61  55  82 NW9       29.82R
$$

 *****  WEATHER ACROSS CENTRAL AND WESTERN NORTH DAKOTA  *****

CITY           SKY/WX    TMP DP  RH WIND       PRES   REMARKS
JAMESTOWN      SUNNY     66  51  58 NW24G37   29.89R
BISMARCK       MOSUNNY   70  45  40 NW21G33   29.99R
MINOT          SUNNY     70  39  32 W30G41    29.95R
MINOT AFB      SUNNY     70  42  36 NW30G41   29.92S
GARRISON         N/A     70  37  29 NW23G40   29.97R
WILLISTON      PTSUNNY   70  34  26 NW26G35   30.06R
DICKINSON      SUNNY     71  37  28 NW24G35   30.06R
HETTINGER      SUNNY     74  34  23 NW32G38   30.09R
$$

 *****  OTHER OBSERVATIONS NORTHEAST NORTH DAKOTA  *****

CITY           SKY/WX    TMP DP  RH WIND       PRES   REMARKS
WALHALLA         N/A     63  54  72 NW20G28   29.79S
LANGDON        FAIR      63  50  63 NW22G30   29.83R
CAVALIER       FAIR      63  54  72 NW17G29   29.78R
GRAFTON        FAIR      59  52  77 NW21G30   29.78R
CANDO          FAIR      66  48  52 NW21G35   29.85S
FORT TOTTEN      N/A     67  55  64 NW10      29.95S
ROLLA          FAIR      64  45  48 NW25G40   29.86S
RUGBY          FAIR      68  46  45 NW31G39   29.88S
 ***** THE ABOVE OBSERVATIONS ARE NON NWS ARE NOT QUALITY
        CONTROLLED AND MAY MIS-REPORT RAIN FOR SNOW...
$$

 *****  OTHER OBSERVATIONS SOUTHEAST NORTH DAKOTA *****

CITY           SKY/WX    TMP DP  RH WIND       PRES   REMARKS
COOPERSTOWN    NOT AVBL
VALLEY CITY    LGT RAIN  66  55  68 NW25G33   29.86R
OAKES            N/A     68  57  68 NW26G36   29.87R
GWINNER        PTCLDY    66  57  72 NW22G28   29.86R
SHEYENNE NWR     N/A     64  58  82 NW12      29.95
BUFFALO        NOT AVBL
WYNDMERE       NOT AVBL
 ***** THE ABOVE OBSERVATIONS ARE NON NWS ARE NOT QUALITY
       CONTROLLED AND MAY MIS-REPORT RAIN FOR SNOW...
$$

  *****  WEATHER ACROSS NORTHERN MINNESOTA  *****

CITY           SKY/WX    TMP DP  RH WIND       PRES   REMARKS
FLAG ISLAND    PTSUNNY   54  48  82 CALM      29.70F
WARROAD        LGT RAIN  57  52  82 W6        29.71S
ROSEAU         HVY RAIN  55  50  82 N5        29.71S
HALLOCK        CLOUDY    55  54  94 NW15G30   29.73F
THF RVR FALLS  CLOUDY    57  54  88 NW18G26   29.74R
HALSTAD          N/A     61  54  77 NW25        N/A
FOSSTON        CLOUDY    52  52 100 W8        29.76F
BAUDETTE       CLOUDY    62  48  60 N7        29.69F
WASKISH        PTSUNNY   63  55  77 CALM      29.70F
CROOKSTON      CLOUDY    55  55 100 NW17G30   29.78R
$$
  *****  WEATHER ACROSS CENTRAL AND WEST MINNESOTA  *****

CITY           SKY/WX    TMP DP  RH WIND       PRES   REMARKS
BEMIDJI        MOSUNNY   64  55  73 SW5       29.71F
PARK RAPIDS    PTSUNNY   66  54  65 W16       29.75S
WADENA         PTSUNNY   66  55  68 W6        29.76S
DETROIT LAKES  CLOUDY    55  54  94 NW17      29.82R THUNDER
MOORHEAD       CLOUDY    61  57  88 NW14G22   29.81S
FERGUS FALLS   CLOUDY    59  57  94 NW14      29.81R
ELBOW LAKE     TSTM      57  56  97 NW17G24   29.82R
MORRIS MN      LGT RAIN  72  57  60 NW43G55   29.77R
STAPLES        MOSUNNY   68  54  60 W10       29.76S
WHEATON        TSTM      55  55 100 NW14      29.85R
$$
  *****  WEATHER ELSEWHERE ACROSS MINNESOTA  *****

CITY           SKY/WX    TMP DP  RH WIND       PRES   REMARKS
DULUTH         MOSUNNY   68  46  45 NW15      29.71S
INTRNTL FALLS  MOSUNNY   59  47  64 NW7       29.70F
ELY            CLOUDY    55  50  82 W7        29.72F
CLOQUET        MOSUNNY   66  48  52 W14       29.72S
BRAINERD       MOSUNNY   68  56  65 NW8       29.75F
HIBBING        MOSUNNY   66  46  48 NW10      29.71F
ALEXANDRIA     PTSUNNY   69  56  62 W7        29.78F
SAINT CLOUD    MOSUNNY   76  54  46 NW14      29.75F
MINNEAPOLIS    MOSUNNY   76  54  46 W16       29.77S
$$

  *****  WEATHER ACROSS SOUTH DAKOTA  *****

CITY           SKY/WX    TMP DP  RH WIND       PRES   REMARKS
SIOUX FALLS    MOSUNNY   83  54  36 W13G23    29.87F
BROOKINGS      NOT AVBL
WATERTOWN      MOSUNNY   79  51  37 W24G33    29.80F
HURON          MOSUNNY   84  46  26 NW24G39   29.86S
SISSETON         N/A     58  58 100 N21G29    29.83R
ABERDEEN         N/A    N/A N/A N/A MISG      29.87R
MITCHELL       PTSUNNY   83  49  30 NW26G38   29.89F
PIERRE         SUNNY     81  47  30 NW32G45   29.96R
MOBRIDGE       SUNNY     74  47  38 NW25G35   29.96R
RAPID CITY     SUNNY     77  40  26 NW29G44   30.15S
$$

  *****  SOME WEATHER IN NEARBY STATES *****

CITY           SKY/WX    TMP DP  RH WIND       PRES   REMARKS
GLASGOW MT     SUNNY     71  37  28 NW22G30   30.16R
GREAT FALLS MT SUNNY     71  42  35 NE6       30.24F
CHEYENNE WY    MOSUNNY   79  42  26 VRB6      30.28S
SCOTTSBLUFF NE SUNNY     84  46  26 N10       30.17F
OMAHA NE       MOSUNNY   85  60  42 NW9       29.91F
DES MOINES IA  MOSUNNY   84  65  52 W15       29.86F
DAVENPORT IA   CLOUDY    76  66  71 SW12      29.83F
CHICAGO IL     PTSUNNY   72  69  90 SW13      29.81F
EAU CLAIRE WI  SUNNY     76  56  49 NW15G21   29.73F
LA CROSSE WI   MOSUNNY   77  61  57 NW8       29.75S
$$

  *****  SOME NATIONAL WEATHER *****

CITY           SKY/WX    TMP DP  RH WIND       PRES   REMARKS
LA GUARDIA NY  PTSUNNY   72  59  63 S18       30.17F
RALEIGH NC     MOSUNNY   80  56  43 N8G16     30.07F
ATLANTA GA     MOSUNNY   82  60  47 E9        30.07F
NEW ORLEANS LA MOSUNNY   88  65  46 E10G21    29.95F HX  90
OKLAHOMA CITY  PTSUNNY   85  66  53 S10G18    29.99F
ALBUQUERQUE NM MOSUNNY   83  54  36 S5        30.13F
SALT LAKE CITY MOSUNNY   81  48  31 NW7       30.14F
LOS ANGELES CA CLOUDY    71  60  68 W10       29.95F
BOISE ID       SUNNY     82  43  25 E3G16     30.10F
SEATTLE WA     SUNNY     70  55  59 N17       30.05F
$$

*** WEATHER ACROSS MANITOBA...SASKATCHEWAN AND ONTARIO ***
                ***ONTARIO***

CITY           SKY/WX    TMP DP  RH WIND       PRES   REMARKS
GERALDTON      DRIZZLE   52  52 100 N12       29.64R
THUNDER BAY    CLOUDY    61  54  77 NW6       29.66R
SIOUX LOOKOUT  PTSUNNY   59  50  72 E5        29.69S
TORONTO        PTSUNNY   77  59  53 SW18G29   29.85S
BIG TROUT LK   PTSUNNY   48  36  61 N7        29.73S
PICKLE LAKE    CLOUDY    48  41  76 N5        29.71S
DRYDEN         CLOUDY    59  50  72 VRB2      29.70R
KENORA         NOT AVBL
$$
                *** MANITOBA***

CITY           SKY/WX    TMP DP  RH WIND       PRES   REMARKS
BRANDON        PTSUNNY   64  48  55 NW18G30   29.83S
DAUPHIN        CLOUDY    64  48  55 NW14G25   29.78R
ISLAND LAKE    MOSUNNY   52  39  62 SE6       29.76S
PILOT MOUND    NOT AVBL
THE PAS        PTSUNNY   59  50  72 NW17      29.76R
THOMPSON       PTSUNNY   48  41  76 NE6       29.78R
WINNIPEG       LGT RAIN  55  52  88 N14       29.78R
LYNN LAKE      CLOUDY    46  43  87 VRB2      29.81R
CHURCHILL      PTSUNNY   39  36  87 N13       29.84R
GILLAM         MOSUNNY   46  34  61 N3        29.80R
$$
                ***SASKATCHEWAN***

CITY           SKY/WX    TMP DP  RH WIND       PRES   REMARKS
ESTEVAN        MOSUNNY   68  41  37 NW23G36   29.99S
KINDERSLEY     NOT AVBL
LLOYDMINSTER   MOSUNNY   66  32  28 W21G29    30.08R
PRINCE ALBERT  NOT AVBL
REGINA         MOSUNNY   66  41  39 NW29G41   30.01R


USA.gov is the U.S. government's official web portal to all federal, state and local government web resources and services.